,,PA_Meas_PMT16A,,PR_Meas_QMR101_102,,RH_Meas_QMH101,,SR_Meas_QMS101,,TA_Meas_QMH101,,GenWind,,GenWind,
time,status,PA,status,PR,status,RH,status,SR,status,TA,status,DirAvg,status,SpdAvg,
2012-05-01, 00:00:04,VALID,916.88,VALID,0,VALID,97.4196,VALID,0,VALID,19.9338,VALID,358,VALID,0.38125,
2012-05-01, 00:01:04,VALID,916.885,VALID,0,VALID,97.4273,VALID,0,VALID,19.9143,VALID,358,VALID,0.405078,
2012-05-01, 00:02:04,VALID,916.908,VALID,0,VALID,97.4349,VALID,0,VALID,19.9548,VALID,358,VALID,0.260938,
2012-05-01, 00:03:04,VALID,916.911,VALID,0,VALID,97.4577,VALID,0.107441,VALID,19.9743,VALID,358,VALID,0,
2012-05-01, 00:04:04,VALID,916.916,VALID,0,VALID,97.4577,VALID,0,VALID,19.9728,VALID,358,VALID,0.658594,
2012-05-01, 00:05:04,VALID,916.892,VALID,0,VALID,97.4501,VALID,0.107441,VALID,19.9533,VALID,358,VALID,0.733203,
2012-05-01, 00:06:04,VALID,916.899,VALID,0,VALID,97.4577,VALID,0,VALID,19.9338,VALID,165,VALID,1.09961,
2012-05-01, 00:07:04,VALID,916.916,VALID,0,VALID,97.4349,VALID,0,VALID,19.9353,VALID,165,VALID,0.621094,
2012-05-01, 00:08:04,VALID,916.882,VALID,0,VALID,97.4577,VALID,0.107441,VALID,19.9548,VALID,165,VALID,0.933594,
2012-05-01, 00:09:04,VALID,916.883,VALID,0,VALID,97.4577,VALID,0,VALID,19.9338,VALID,157,VALID,0.975,
2012-05-01, 00:10:04,VALID,916.874,VALID,0,VALID,97.4425,VALID,0,VALID,19.9743,VALID,161,VALID,0.756641,
2012-05-01, 00:11:04,VALID,916.865,VALID,0,VALID,97.4577,VALID,0,VALID,19.9743,VALID,168,VALID,1.18828,
2012-05-01, 00:12:04,VALID,916.858,VALID,0,VALID,97.4501,VALID,0,VALID,19.9923,VALID,184,VALID,0.654688,
2012-05-01, 00:13:04,VALID,916.865,VALID,0,VALID,97.4577,VALID,0,VALID,20.0328,VALID,175,VALID,0.405469,
2012-05-01, 00:14:04,VALID,916.854,VALID,0,VALID,97.473,VALID,0,VALID,20.0118,VALID,165,VALID,0.773047,
2012-05-01, 00:15:04,VALID,916.893,VALID,0,VALID,97.4654,VALID,0,VALID,20.0133,VALID,160,VALID,0.53125,
2012-05-01, 00:16:04,VALID,916.875,VALID,0,VALID,97.4654,VALID,0.107441,VALID,19.9728,VALID,127,VALID,1.23398,
2012-05-01, 00:17:04,VALID,916.88,VALID,0,VALID,97.4501,VALID,0,VALID,19.9128,VALID,128,VALID,0.8,
2012-05-01, 00:18:04,VALID,916.919,VALID,0,VALID,97.4501,VALID,0,VALID,19.9548,VALID,139,VALID,0.205078,
2012-05-01, 00:19:04,VALID,916.919,VALID,0,VALID,97.4501,VALID,0,VALID,19.9143,VALID,134,VALID,0.955859,
2012-05-01, 00:20:04,VALID,916.931,VALID,0,VALID,97.4806,VALID,0.107441,VALID,19.9143,VALID,134,VALID,0.185156,
2012-05-01, 00:21:04,VALID,916.978,VALID,0,VALID,97.4654,VALID,0.107441,VALID,19.9143,VALID,134,VALID,0,
2012-05-01, 00:22:04,VALID,916.98,VALID,0,VALID,97.4577,VALID,0.107441,VALID,19.9143,VALID,134,VALID,0.499609,
2012-05-01, 00:23:04,VALID,916.987,VALID,0,VALID,97.4654,VALID,0,VALID,19.9338,VALID,134,VALID,0.302344,
2012-05-01, 00:24:04,VALID,917.004,VALID,0,VALID,97.473,VALID,0,VALID,19.9338,VALID,134,VALID,0.391016,
2012-05-01, 00:25:04,VALID,916.977,VALID,0,VALID,97.4654,VALID,0,VALID,19.9158,VALID,134,VALID,0.382813,
2012-05-01, 00:26:04,VALID,917.006,VALID,0,VALID,97.4882,VALID,0,VALID,19.9353,VALID,134,VALID,0.219141,
2012-05-01, 00:27:04,VALID,917.021,VALID,0,VALID,97.4959,VALID,0,VALID,19.9158,VALID,134,VALID,0.648828,
2012-05-01, 00:28:04,VALID,916.989,VALID,0,VALID,97.4882,VALID,0,VALID,19.8963,VALID,134,VALID,0.0265625,
2012-05-01, 00:29:04,VALID,916.972,VALID,0,VALID,97.4806,VALID,0,VALID,19.8753,VALID,134,VALID,0.274219,
2012-05-01, 00:30:04,VALID,917.006,VALID,0,VALID,97.4806,VALID,0,VALID,19.9368,VALID,134,VALID,0.345313,
2012-05-01, 00:31:04,VALID,916.995,VALID,0,VALID,97.4959,VALID,0,VALID,19.8978,VALID,115,VALID,0.810156,
2012-05-01, 00:32:04,VALID,917.015,VALID,0,VALID,97.4882,VALID,0,VALID,19.8783,VALID,179,VALID,0.914844,
2012-05-01, 00:33:04,VALID,917.005,VALID,0,VALID,97.4959,VALID,0,VALID,19.8183,VALID,141,VALID,1.07656,
2012-05-01, 00:34:04,VALID,916.99,VALID,0,VALID,97.4959,VALID,0,VALID,19.8183,VALID,141,VALID,1.02148,
2012-05-01, 00:35:04,VALID,917.005,VALID,0,VALID,97.4959,VALID,0,VALID,19.8198,VALID,141,VALID,0.619141,
2012-05-01, 00:36:04,VALID,917.009,VALID,0,VALID,97.5035,VALID,0,VALID,19.8198,VALID,142,VALID,0.844141,
2012-05-01, 00:37:04,VALID,917.003,VALID,0,VALID,97.5035,VALID,0,VALID,19.7808,VALID,151,VALID,0.722656,
2012-05-01, 00:38:04,VALID,916.983,VALID,0,VALID,97.5035,VALID,0,VALID,19.7403,VALID,134,VALID,0.672656,
2012-05-01, 00:39:04,VALID,916.965,VALID,0,VALID,97.5035,VALID,0,VALID,19.7808,VALID,145,VALID,0.627734,
2012-05-01, 00:40:04,VALID,916.94,VALID,0,VALID,97.4882,VALID,0,VALID,19.7403,VALID,146,VALID,0.981641,
2012-05-01, 00:41:04,VALID,916.946,VALID,0,VALID,97.4959,VALID,0,VALID,19.7418,VALID,146,VALID,0.792188,
2012-05-01, 00:42:04,VALID,916.927,VALID,0,VALID,97.5187,VALID,0,VALID,19.7223,VALID,142,VALID,0.495703,
2012-05-01, 00:43:04,VALID,916.9,VALID,0,VALID,97.5264,VALID,0,VALID,19.7013,VALID,139,VALID,0.739453,
2012-05-01, 00:44:04,VALID,916.931,VALID,0,VALID,97.5187,VALID,0,VALID,19.7028,VALID,139,VALID,0.623438,
2012-05-01, 00:45:04,VALID,916.905,VALID,0,VALID,97.534,VALID,0,VALID,19.6623,VALID,139,VALID,0.387891,
2012-05-01, 00:46:04,VALID,916.885,VALID,0,VALID,97.5035,VALID,0,VALID,19.6833,VALID,139,VALID,0.0886719,
2012-05-01, 00:47:04,VALID,916.889,VALID,0,VALID,97.5264,VALID,0,VALID,19.6623,VALID,139,VALID,0.955859,
2012-05-01, 00:48:04,VALID,916.887,VALID,0,VALID,97.5264,VALID,0,VALID,19.6233,VALID,139,VALID,0.612109,
2012-05-01, 00:49:04,VALID,916.867,VALID,0,VALID,97.5187,VALID,0,VALID,19.6248,VALID,140,VALID,0.916016,
2012-05-01, 00:50:04,VALID,916.854,VALID,0,VALID,97.5492,VALID,0,VALID,19.6248,VALID,140,VALID,0.971094,
2012-05-01, 00:51:04,VALID,916.863,VALID,0,VALID,97.5416,VALID,0,VALID,19.6038,VALID,140,VALID,0.451953,
2012-05-01, 00:52:04,VALID,916.826,VALID,0,VALID,97.5492,VALID,0,VALID,19.6248,VALID,140,VALID,0.633203,
2012-05-01, 00:53:04,VALID,916.796,VALID,0,VALID,97.5569,VALID,0,VALID,19.6053,VALID,140,VALID,0.253906,
2012-05-01, 00:54:04,VALID,916.748,VALID,0,VALID,97.5264,VALID,0,VALID,19.5843,VALID,140,VALID,0.287891,
2012-05-01, 00:55:04,VALID,916.736,VALID,0,VALID,97.5569,VALID,0,VALID,19.5633,VALID,140,VALID,0.442969,
2012-05-01, 00:56:04,VALID,916.731,VALID,0,VALID,97.5721,VALID,0,VALID,19.5843,VALID,140,VALID,0.317969,
2012-05-01, 00:57:04,VALID,916.741,VALID,0,VALID,97.5492,VALID,0,VALID,19.5648,VALID,140,VALID,1.41328,
2012-05-01, 00:58:04,VALID,916.701,VALID,0,VALID,97.5416,VALID,0,VALID,19.5453,VALID,151,VALID,1.01133,
2012-05-01, 00:59:04,VALID,916.671,VALID,0,VALID,97.5797,VALID,0,VALID,19.5048,VALID,123,VALID,1.30273,
2012-05-01, 01:00:04,VALID,916.675,VALID,0,VALID,97.5797,VALID,0,VALID,19.5048,VALID,125,VALID,1.10742,
2012-05-01, 01:01:04,VALID,916.646,VALID,0,VALID,97.5645,VALID,0,VALID,19.4853,VALID,129,VALID,0.521484,
2012-05-01, 01:02:04,VALID,916.621,VALID,0,VALID,97.5645,VALID,0,VALID,19.4673,VALID,139,VALID,1.41406,
2012-05-01, 01:03:04,VALID,916.619,VALID,0,VALID,97.5645,VALID,0,VALID,19.4268,VALID,135,VALID,0.914844,
2012-05-01, 01:04:04,VALID,916.619,VALID,0,VALID,97.5797,VALID,0,VALID,19.4478,VALID,126,VALID,0.983984,
2012-05-01, 01:05:04,VALID,916.633,VALID,0,VALID,97.5797,VALID,0.107441,VALID,19.4478,VALID,138,VALID,0.485938,
2012-05-01, 01:06:04,VALID,916.614,VALID,0,VALID,97.6026,VALID,0,VALID,19.4268,VALID,107,VALID,0.222656,
2012-05-01, 01:07:04,VALID,916.579,VALID,0,VALID,97.595,VALID,0.107441,VALID,19.4283,VALID,108,VALID,0.216016,
2012-05-01, 01:08:04,VALID,916.575,VALID,0,VALID,97.595,VALID,0,VALID,19.4074,VALID,178,VALID,0.967188,
2012-05-01, 01:09:04,VALID,916.551,VALID,0,VALID,97.5797,VALID,0,VALID,19.3879,VALID,146,VALID,0.645312,
2012-05-01, 01:10:04,VALID,916.562,VALID,0,VALID,97.5873,VALID,0,VALID,19.3908,VALID,179,VALID,0.675781,
2012-05-01, 01:11:04,VALID,916.532,VALID,0,VALID,97.595,VALID,0,VALID,19.3908,VALID,155,VALID,0.451953,
2012-05-01, 01:12:04,VALID,916.518,VALID,0,VALID,97.5797,VALID,0,VALID,19.3503,VALID,138,VALID,0.388672,
2012-05-01, 01:13:04,VALID,916.521,VALID,0,VALID,97.6102,VALID,0,VALID,19.3113,VALID,130,VALID,1.25039,
2012-05-01, 01:14:04,VALID,916.505,VALID,0,VALID,97.6026,VALID,0,VALID,19.3113,VALID,140,VALID,0.875781,
2012-05-01, 01:15:04,VALID,916.477,VALID,0,VALID,97.6178,VALID,0,VALID,19.3128,VALID,148,VALID,0.555078,
2012-05-01, 01:16:04,VALID,916.465,VALID,0,VALID,97.6026,VALID,0,VALID,19.3128,VALID,131,VALID,0.607813,
2012-05-01, 01:17:04,VALID,916.459,VALID,0,VALID,97.6102,VALID,0,VALID,19.2723,VALID,144,VALID,1.16836,
2012-05-01, 01:18:04,VALID,916.392,VALID,0,VALID,97.6178,VALID,0,VALID,19.2738,VALID,143,VALID,0.580078,
2012-05-01, 01:19:04,VALID,916.398,VALID,0,VALID,97.6331,VALID,0,VALID,19.2738,VALID,146,VALID,1.02539,
2012-05-01, 01:20:04,VALID,916.396,VALID,0,VALID,97.595,VALID,0,VALID,19.2528,VALID,169,VALID,0.646094,
2012-05-01, 01:21:04,VALID,916.383,VALID,0,VALID,97.6178,VALID,0,VALID,19.2543,VALID,163,VALID,0.495703,
2012-05-01, 01:22:04,VALID,916.384,VALID,0,VALID,97.6331,VALID,0,VALID,19.2334,VALID,156,VALID,0.421484,
2012-05-01, 01:23:04,VALID,916.412,VALID,0,VALID,97.6102,VALID,0,VALID,19.2153,VALID,130,VALID,0.934766,
2012-05-01, 01:24:04,VALID,916.38,VALID,0,VALID,97.6407,VALID,0,VALID,19.1958,VALID,164,VALID,0.590234,
2012-05-01, 01:25:04,VALID,916.383,VALID,0,VALID,97.6255,VALID,0,VALID,19.1944,VALID,157,VALID,1.33281,
2012-05-01, 01:26:04,VALID,916.376,VALID,0,VALID,97.6255,VALID,0,VALID,19.1749,VALID,135,VALID,1.19062,
2012-05-01, 01:27:04,VALID,916.37,VALID,0,VALID,97.6331,VALID,0,VALID,19.1749,VALID,119,VALID,0.98125,
2012-05-01, 01:28:04,VALID,916.349,VALID,0,VALID,97.6407,VALID,0,VALID,19.1749,VALID,132,VALID,0.540625,
2012-05-01, 01:29:04,VALID,916.345,VALID,0,VALID,97.6483,VALID,0,VALID,19.1539,VALID,129,VALID,1.21289,
2012-05-01, 01:30:04,VALID,916.337,VALID,0,VALID,97.6407,VALID,0.107441,VALID,19.1749,VALID,140,VALID,0.837109,
2012-05-01, 01:31:04,VALID,916.313,VALID,0,VALID,97.6483,VALID,0.107441,VALID,19.1539,VALID,146,VALID,1.20664,
2012-05-01, 01:32:04,VALID,916.307,VALID,0,VALID,97.6636,VALID,0,VALID,19.1359,VALID,114,VALID,0.962891,
2012-05-01, 01:33:04,VALID,916.296,VALID,0,VALID,97.6483,VALID,0.107441,VALID,19.1554,VALID,141,VALID,1.42461,
2012-05-01, 01:34:04,VALID,916.298,VALID,0,VALID,97.6483,VALID,0,VALID,19.1359,VALID,145,VALID,1.11133,
2012-05-01, 01:35:04,VALID,916.349,VALID,0,VALID,97.656,VALID,0,VALID,19.1359,VALID,144,VALID,0.995313,
2012-05-01, 01:36:04,VALID,916.325,VALID,0,VALID,97.6483,VALID,0.107441,VALID,19.1164,VALID,160,VALID,1.35469,
2012-05-01, 01:37:04,VALID,916.319,VALID,0,VALID,97.6636,VALID,0,VALID,19.0969,VALID,119,VALID,0.749609,
2012-05-01, 01:38:04,VALID,916.323,VALID,0,VALID,97.6483,VALID,0,VALID,19.0774,VALID,132,VALID,1.03516,
2012-05-01, 01:39:04,VALID,916.279,VALID,0,VALID,97.6788,VALID,0,VALID,19.0579,VALID,130,VALID,1.08203,
2012-05-01, 01:40:04,VALID,916.293,VALID,0,VALID,97.6865,VALID,0,VALID,19.0384,VALID,135,VALID,1.41836,
2012-05-01, 01:41:04,VALID,916.267,VALID,0,VALID,97.6636,VALID,0,VALID,18.9994,VALID,157,VALID,1.16055,
2012-05-01, 01:42:04,VALID,916.26,VALID,0,VALID,97.6788,VALID,0,VALID,18.9994,VALID,127,VALID,0.857422,
2012-05-01, 01:43:04,VALID,916.244,VALID,0,VALID,97.6712,VALID,0,VALID,18.9005,VALID,137,VALID,1.65625,
2012-05-01, 01:44:04,VALID,916.214,VALID,0,VALID,97.6865,VALID,0,VALID,18.8824,VALID,141,VALID,1.66289,
2012-05-01, 01:45:04,VALID,916.194,VALID,0,VALID,97.6865,VALID,0.107441,VALID,18.8824,VALID,148,VALID,1.39375,
2012-05-01, 01:46:04,VALID,916.201,VALID,0,VALID,97.6788,VALID,0,VALID,18.8824,VALID,169,VALID,1.38398,
2012-05-01, 01:47:04,VALID,916.194,VALID,0,VALID,97.6788,VALID,0,VALID,18.9019,VALID,163,VALID,1.66992,
2012-05-01, 01:48:04,VALID,916.172,VALID,0,VALID,97.6788,VALID,0,VALID,18.9019,VALID,163,VALID,1.24336,
2012-05-01, 01:49:04,VALID,916.146,VALID,0,VALID,97.6865,VALID,0,VALID,18.9019,VALID,170,VALID,1.81875,
2012-05-01, 01:50:04,VALID,916.142,VALID,0,VALID,97.6865,VALID,0,VALID,18.9034,VALID,175,VALID,1.61641,
2012-05-01, 01:51:04,VALID,916.133,VALID,0,VALID,97.6788,VALID,0,VALID,18.881,VALID,175,VALID,1.22266,
2012-05-01, 01:52:04,VALID,916.137,VALID,0,VALID,97.6865,VALID,0,VALID,18.8629,VALID,143,VALID,0.896875,
2012-05-01, 01:53:04,VALID,916.114,VALID,0,VALID,97.6712,VALID,0,VALID,18.8629,VALID,165,VALID,1.74023,
2012-05-01, 01:54:04,VALID,916.115,VALID,0,VALID,97.6865,VALID,0,VALID,18.8434,VALID,144,VALID,1.00273,
2012-05-01, 01:55:04,VALID,916.113,VALID,0,VALID,97.6865,VALID,0,VALID,18.824,VALID,139,VALID,1.47031,
2012-05-01, 01:56:04,VALID,916.086,VALID,0,VALID,97.6865,VALID,0,VALID,18.785,VALID,164,VALID,1.32656,
2012-05-01, 01:57:04,VALID,916.092,VALID,0,VALID,97.6712,VALID,0,VALID,18.746,VALID,143,VALID,1.14844,
2012-05-01, 01:58:04,VALID,916.087,VALID,0,VALID,97.6788,VALID,0,VALID,18.707,VALID,143,VALID,1.28984,
2012-05-01, 01:59:04,VALID,916.042,VALID,0,VALID,97.7017,VALID,0,VALID,18.707,VALID,142,VALID,1.14063,
2012-05-01, 02:00:04,VALID,916.053,VALID,0,VALID,97.6788,VALID,0,VALID,18.668,VALID,158,VALID,1.13672,
2012-05-01, 02:01:04,VALID,916.055,VALID,0,VALID,97.6941,VALID,0,VALID,18.668,VALID,152,VALID,1.04648,
2012-05-01, 02:02:04,VALID,916.031,VALID,0,VALID,97.6865,VALID,0,VALID,18.6485,VALID,145,VALID,0.820313,
2012-05-01, 02:03:04,VALID,916.046,VALID,0,VALID,97.6865,VALID,0,VALID,18.6304,VALID,137,VALID,1.04648,
2012-05-01, 02:04:04,VALID,916.026,VALID,0,VALID,97.6865,VALID,0,VALID,18.6304,VALID,135,VALID,0.825,
2012-05-01, 02:05:04,VALID,916.021,VALID,0,VALID,97.6788,VALID,0,VALID,18.59,VALID,141,VALID,1.14063,
2012-05-01, 02:06:04,VALID,915.99,VALID,0,VALID,97.7017,VALID,0,VALID,18.5691,VALID,129,VALID,0.404687,
2012-05-01, 02:07:04,VALID,915.975,VALID,0,VALID,97.7017,VALID,0,VALID,18.59,VALID,144,VALID,1.75352,
2012-05-01, 02:08:04,VALID,915.94,VALID,0,VALID,97.6865,VALID,0,VALID,18.59,VALID,148,VALID,1.14922,
2012-05-01, 02:09:04,VALID,915.932,VALID,0,VALID,97.7017,VALID,0.107441,VALID,18.5705,VALID,153,VALID,1.22305,
2012-05-01, 02:10:04,VALID,915.932,VALID,0,VALID,97.6788,VALID,0,VALID,18.5705,VALID,162,VALID,1.16133,
2012-05-01, 02:11:04,VALID,915.908,VALID,0,VALID,97.6941,VALID,0,VALID,18.5511,VALID,173,VALID,1.27969,
2012-05-01, 02:12:04,VALID,915.894,VALID,0,VALID,97.6865,VALID,0,VALID,18.5705,VALID,159,VALID,1.22656,
2012-05-01, 02:13:04,VALID,915.872,VALID,0,VALID,97.6941,VALID,0,VALID,18.5914,VALID,154,VALID,1.57813,
2012-05-01, 02:14:04,VALID,915.858,VALID,0,VALID,97.6941,VALID,0,VALID,18.5705,VALID,154,VALID,1.22656,
2012-05-01, 02:15:04,VALID,915.873,VALID,0,VALID,97.7017,VALID,0.107441,VALID,18.6109,VALID,166,VALID,1.58008,
2012-05-01, 02:16:04,VALID,915.86,VALID,0,VALID,97.6865,VALID,0,VALID,18.6304,VALID,142,VALID,1.13281,
2012-05-01, 02:17:04,VALID,915.869,VALID,0,VALID,97.6788,VALID,0,VALID,18.6095,VALID,177,VALID,1.09297,
2012-05-01, 02:18:04,VALID,915.852,VALID,0,VALID,97.6788,VALID,0,VALID,18.6095,VALID,166,VALID,1.75703,
2012-05-01, 02:19:04,VALID,915.861,VALID,0,VALID,97.6865,VALID,0,VALID,18.6095,VALID,169,VALID,1.72695,
2012-05-01, 02:20:04,VALID,915.885,VALID,0,VALID,97.6865,VALID,0,VALID,18.6095,VALID,156,VALID,2.15664,
2012-05-01, 02:21:04,VALID,915.885,VALID,0,VALID,97.6788,VALID,0,VALID,18.59,VALID,167,VALID,1.33359,
2012-05-01, 02:22:04,VALID,915.904,VALID,0,VALID,97.7017,VALID,0,VALID,18.6109,VALID,159,VALID,1.1375,
2012-05-01, 02:23:04,VALID,915.865,VALID,0,VALID,97.6483,VALID,0,VALID,18.59,VALID,134,VALID,1.20898,
2012-05-01, 02:24:04,VALID,915.871,VALID,0,VALID,97.6636,VALID,0,VALID,18.5705,VALID,143,VALID,1.41016,
2012-05-01, 02:25:04,VALID,915.866,VALID,0,VALID,97.6407,VALID,0,VALID,18.5316,VALID,127,VALID,0.658984,
2012-05-01, 02:26:04,VALID,915.865,VALID,0,VALID,97.6483,VALID,0,VALID,18.5121,VALID,115,VALID,1.09687,
2012-05-01, 02:27:04,VALID,915.825,VALID,0,VALID,97.6407,VALID,0,VALID,18.494,VALID,109,VALID,0.88125,
2012-05-01, 02:28:04,VALID,915.856,VALID,0,VALID,97.6407,VALID,0,VALID,18.4327,VALID,108,VALID,0.894922,
2012-05-01, 02:29:05,VALID,915.832,VALID,0,VALID,97.6255,VALID,0,VALID,18.4146,VALID,108,VALID,0.945703,
2012-05-01, 02:30:05,VALID,915.844,VALID,0,VALID,97.595,VALID,0,VALID,18.3756,VALID,108,VALID,0.867578,
2012-05-01, 02:31:05,VALID,915.842,VALID,0,VALID,97.6026,VALID,0,VALID,18.3561,VALID,108,VALID,0.967578,
2012-05-01, 02:32:05,VALID,915.866,VALID,0,VALID,97.5797,VALID,0,VALID,18.3172,VALID,108,VALID,0.903125,
2012-05-01, 02:33:05,VALID,915.837,VALID,0,VALID,97.5873,VALID,0,VALID,18.3172,VALID,108,VALID,0.959375,
2012-05-01, 02:34:05,VALID,915.838,VALID,0,VALID,97.595,VALID,0,VALID,18.3172,VALID,108,VALID,1.12383,
2012-05-01, 02:35:05,VALID,915.844,VALID,0,VALID,97.595,VALID,0,VALID,18.3185,VALID,108,VALID,0.792969,
2012-05-01, 02:36:05,VALID,915.812,VALID,0,VALID,97.595,VALID,0,VALID,18.2977,VALID,108,VALID,1.2957,
2012-05-01, 02:37:05,VALID,915.819,VALID,0,VALID,97.6255,VALID,0,VALID,18.2977,VALID,125,VALID,1.39922,
2012-05-01, 02:38:05,VALID,915.797,VALID,0,VALID,97.6255,VALID,0,VALID,18.3172,VALID,134,VALID,1.72656,
2012-05-01, 02:39:05,VALID,915.785,VALID,0,VALID,97.6331,VALID,0,VALID,18.3185,VALID,130,VALID,1.44492,
2012-05-01, 02:40:05,VALID,915.727,VALID,0,VALID,97.6331,VALID,0,VALID,18.3172,VALID,130,VALID,1.43906,
2012-05-01, 02:41:05,VALID,915.739,VALID,0,VALID,97.6331,VALID,0,VALID,18.2977,VALID,140,VALID,1.35586,
2012-05-01, 02:42:05,VALID,915.703,VALID,0,VALID,97.6255,VALID,0,VALID,18.2977,VALID,129,VALID,0.941797,
2012-05-01, 02:43:05,VALID,915.715,VALID,0,VALID,97.6102,VALID,0,VALID,18.2782,VALID,129,VALID,1.16016,
2012-05-01, 02:44:05,VALID,915.655,VALID,0,VALID,97.6102,VALID,0,VALID,18.2587,VALID,129,VALID,1.57891,
2012-05-01, 02:45:05,VALID,915.665,VALID,0,VALID,97.595,VALID,0,VALID,18.2601,VALID,143,VALID,1.42734,
2012-05-01, 02:46:05,VALID,915.651,VALID,0,VALID,97.6026,VALID,0,VALID,18.2601,VALID,132,VALID,1.25625,
2012-05-01, 02:47:05,VALID,915.618,VALID,0,VALID,97.595,VALID,0,VALID,18.2796,VALID,121,VALID,1.40313,
2012-05-01, 02:48:05,VALID,915.62,VALID,0,VALID,97.6026,VALID,0,VALID,18.2601,VALID,132,VALID,1.50234,
2012-05-01, 02:49:05,VALID,915.627,VALID,0,VALID,97.6026,VALID,0,VALID,18.2587,VALID,137,VALID,0.978125,
2012-05-01, 02:50:05,VALID,915.637,VALID,0,VALID,97.5873,VALID,0,VALID,18.2587,VALID,119,VALID,1.43242,
2012-05-01, 02:51:05,VALID,915.596,VALID,0,VALID,97.6026,VALID,0,VALID,18.2392,VALID,126,VALID,1.0082,
2012-05-01, 02:52:05,VALID,915.614,VALID,0,VALID,97.6026,VALID,0,VALID,18.2601,VALID,126,VALID,0.907031,
2012-05-01, 02:53:05,VALID,915.583,VALID,0,VALID,97.6102,VALID,0,VALID,18.2392,VALID,124,VALID,0.7,
2012-05-01, 02:54:05,VALID,915.612,VALID,0,VALID,97.5645,VALID,0,VALID,18.2197,VALID,140,VALID,1.21602,
2012-05-01, 02:55:05,VALID,915.575,VALID,0,VALID,97.5569,VALID,0,VALID,18.2197,VALID,145,VALID,1.12148,
2012-05-01, 02:56:05,VALID,915.584,VALID,0,VALID,97.5569,VALID,0,VALID,18.2197,VALID,135,VALID,1.19375,
2012-05-01, 02:57:05,VALID,915.562,VALID,0,VALID,97.5264,VALID,0,VALID,18.2002,VALID,133,VALID,1.0293,
2012-05-01, 02:58:05,VALID,915.581,VALID,0,VALID,97.5111,VALID,0,VALID,18.2211,VALID,142,VALID,1.02461,
2012-05-01, 02:59:05,VALID,915.554,VALID,0,VALID,97.4806,VALID,0,VALID,18.2016,VALID,139,VALID,1.23125,
2012-05-01, 03:00:05,VALID,915.539,VALID,0,VALID,97.4501,VALID,0,VALID,18.2016,VALID,133,VALID,0.944922,
2012-05-01, 03:01:05,VALID,915.514,VALID,0,VALID,97.4349,VALID,0,VALID,18.1612,VALID,133,VALID,0.987891,
2012-05-01, 03:02:05,VALID,915.508,VALID,0,VALID,97.3968,VALID,0,VALID,18.1417,VALID,123,VALID,0.964063,
2012-05-01, 03:03:05,VALID,915.512,VALID,0,VALID,97.3739,VALID,0,VALID,18.1626,VALID,127,VALID,1.32305,
2012-05-01, 03:04:05,VALID,915.498,VALID,0,VALID,97.351,VALID,0,VALID,18.1417,VALID,118,VALID,1.06562,
2012-05-01, 03:05:05,VALID,915.483,VALID,0,VALID,97.2824,VALID,0,VALID,18.1028,VALID,117,VALID,0.921484,
2012-05-01, 03:06:05,VALID,915.492,VALID,0,VALID,97.2824,VALID,0,VALID,18.1028,VALID,94,VALID,1.20664,
2012-05-01, 03:07:05,VALID,915.469,VALID,0,VALID,97.2367,VALID,0,VALID,18.0833,VALID,96,VALID,0.907422,
2012-05-01, 03:08:05,VALID,915.452,VALID,0,VALID,97.2443,VALID,0,VALID,18.0833,VALID,96,VALID,0.825781,
2012-05-01, 03:09:05,VALID,915.439,VALID,0,VALID,97.1681,VALID,0,VALID,18.0248,VALID,96,VALID,0.680859,
2012-05-01, 03:10:05,VALID,915.407,VALID,0,VALID,97.1986,VALID,0,VALID,18.0053,VALID,97,VALID,0.700781,
2012-05-01, 03:11:05,VALID,915.437,VALID,0,VALID,97.2443,VALID,0,VALID,17.9663,VALID,97,VALID,0.487891,
2012-05-01, 03:12:05,VALID,915.397,VALID,0,VALID,97.3205,VALID,0,VALID,18.0262,VALID,97,VALID,1.02266,
2012-05-01, 03:13:05,VALID,915.38,VALID,0,VALID,97.351,VALID,0,VALID,18.0262,VALID,101,VALID,1.03086,
2012-05-01, 03:14:05,VALID,915.374,VALID,0,VALID,97.3205,VALID,0,VALID,18.0262,VALID,113,VALID,0.738281,
2012-05-01, 03:15:05,VALID,915.383,VALID,0,VALID,97.2824,VALID,0,VALID,18.0457,VALID,113,VALID,0.879297,
2012-05-01, 03:16:05,VALID,915.371,VALID,0,VALID,97.2519,VALID,0,VALID,18.0262,VALID,110,VALID,1.24727,
2012-05-01, 03:17:05,VALID,915.342,VALID,0,VALID,97.229,VALID,0,VALID,18.0262,VALID,108,VALID,1.18281,
2012-05-01, 03:18:05,VALID,915.37,VALID,0,VALID,97.1604,VALID,0,VALID,18.0067,VALID,101,VALID,1.08359,
2012-05-01, 03:19:05,VALID,915.373,VALID,0,VALID,97.1299,VALID,0,VALID,17.9872,VALID,99,VALID,0.977734,
2012-05-01, 03:20:05,VALID,915.355,VALID,0,VALID,97.0232,VALID,0,VALID,17.9677,VALID,99,VALID,0.644141,
2012-05-01, 03:21:05,VALID,915.377,VALID,0,VALID,97.0232,VALID,0,VALID,17.9482,VALID,98,VALID,1.09727,
2012-05-01, 03:22:05,VALID,915.365,VALID,0,VALID,97.0156,VALID,0,VALID,17.9482,VALID,98,VALID,1.07852,
2012-05-01, 03:23:05,VALID,915.411,VALID,0,VALID,97.0156,VALID,0,VALID,17.9065,VALID,99,VALID,1.27539,
2012-05-01, 03:24:05,VALID,915.38,VALID,0,VALID,96.9622,VALID,0,VALID,17.9079,VALID,99,VALID,1.15547,
2012-05-01, 03:25:05,VALID,915.395,VALID,0,VALID,96.9317,VALID,0,VALID,17.9092,VALID,99,VALID,1.05469,
2012-05-01, 03:26:05,VALID,915.372,VALID,0,VALID,96.9546,VALID,0,VALID,17.8884,VALID,99,VALID,0.909375,
2012-05-01, 03:27:05,VALID,915.391,VALID,0,VALID,96.9698,VALID,0,VALID,17.9092,VALID,99,VALID,1.13281,
2012-05-01, 03:28:05,VALID,915.369,VALID,0,VALID,96.947,VALID,0,VALID,17.9092,VALID,99,VALID,1.06602,
2012-05-01, 03:29:05,VALID,915.37,VALID,0,VALID,96.9165,VALID,0,VALID,17.9092,VALID,99,VALID,1.19219,
2012-05-01, 03:30:05,VALID,915.362,VALID,0,VALID,96.9317,VALID,0,VALID,17.9287,VALID,133,VALID,1.70664,
2012-05-01, 03:31:05,VALID,915.356,VALID,0,VALID,96.9394,VALID,0,VALID,17.9872,VALID,129,VALID,1.60859,
2012-05-01, 03:32:05,VALID,915.335,VALID,0,VALID,96.8631,VALID,0,VALID,17.9663,VALID,129,VALID,1.49648,
2012-05-01, 03:33:05,VALID,915.299,VALID,0,VALID,96.764,VALID,0,VALID,17.9872,VALID,129,VALID,1.51758,
2012-05-01, 03:34:05,VALID,915.28,VALID,0,VALID,96.6802,VALID,0,VALID,17.9872,VALID,129,VALID,1.57695,
2012-05-01, 03:35:05,VALID,915.28,VALID,0,VALID,96.5734,VALID,0,VALID,18.008,VALID,126,VALID,1.46367,
2012-05-01, 03:36:05,VALID,915.287,VALID,0,VALID,96.5201,VALID,0,VALID,18.0262,VALID,128,VALID,1.44531,
2012-05-01, 03:37:05,VALID,915.259,VALID,0,VALID,96.4286,VALID,0,VALID,17.9858,VALID,128,VALID,1.10391,
2012-05-01, 03:38:05,VALID,915.27,VALID,0,VALID,96.3142,VALID,0,VALID,18.0262,VALID,128,VALID,1.01992,
2012-05-01, 03:39:05,VALID,915.273,VALID,0,VALID,96.2304,VALID,0,VALID,18.0067,VALID,128,VALID,0.961328,
2012-05-01, 03:40:05,VALID,915.253,VALID,0,VALID,96.1008,VALID,0,VALID,18.0067,VALID,128,VALID,1.06719,
2012-05-01, 03:41:05,VALID,915.259,VALID,0,VALID,95.9788,VALID,0,VALID,17.9872,VALID,120,VALID,1.08789,
2012-05-01, 03:42:05,VALID,915.276,VALID,0,VALID,95.9102,VALID,0,VALID,17.9468,VALID,113,VALID,1.01641,
2012-05-01, 03:43:05,VALID,915.284,VALID,0,VALID,95.8568,VALID,0,VALID,17.9274,VALID,114,VALID,1.14922,
2012-05-01, 03:44:05,VALID,915.299,VALID,0,VALID,95.7806,VALID,0,VALID,17.9482,VALID,115,VALID,1.13516,